CZ-6A DEB

Satellite information

Favourite Embed

Satellite Type and Status

DEBRISIN ORBIT

Key statistics

Satellite CZ-6A DEB at a glance.

Uptime

397

Days in orbit

Revolutions

≈ 14.1

Per day

Orbit

LEO

Low Earth Orbit

Inclination

88.9

Latest

Satellite identification and parameters

Extended collection of information and parameters for CZ-6A DEB.

Object identification

Identified? True

Debris? True

Object name: CZ-6A DEB

International designator: 2024-140CD

Object number (NORAD): 60676

Object ID (CCSDS): 60676

Country: PEOPLES REPUBLIC OF CHINA (PRC)

Current information (Y/N): Y

RCS size: MEDIUM

Orbital parameters

Period: 101.854 minutes

Inclination: 88.9469 deg

SMA: 7224.557 km

Apoapsis: 897.993 km

Periapsis: 794.851 km

RAAN: 304.5727 deg

Eccentricy: 0.00713833

Argument of periapsis: 40.4079 deg

Mean anomaly: 320.2379 deg

Mean motion: 14.13793316 rev/day

Mean motion (dot): 0.0000042 rev/day2

B* drag term: 0.00020905691 1/REarth

Two-line elements (TLE)

Creation date: Sept. 7, 2025, 3:09 a.m.

Reference frame: TEME

Reference center: EARTH

Epoch: Sept. 6, 2025, 8:50 p.m. UTC

TLE line 0: 0 CZ-6A DEB

TLE line 1: 1 60676U 24140CD 25249.86836444 .00000420 00000-0 20906-3 0 9997

TLE line 2: 2 60676 88.9469 304.5727 0071383 40.4079 320.2379 14.13793316 55638

Live tracking on map

Real-time ground track for satellite CZ-6A DEB.

In-orbit conjunctions

A list of the most updated potential collisions computed for object CZ-6A DEB.

Target Orbit TCA Probability of collision Miss distance Type
CZ-6A DEB SSO 2025-01-14 22:12:22 0.0002366914 665.0 (m) DEBRIS
COSMOS 2251 DEB LEO 2025-01-02 15:35:19 0.0001207528 714.0 (m) DEBRIS
THOR ABLESTAR DEB LEO 2024-11-22 17:09:05 0.001094758 99.0 (m) DEBRIS
FENGYUN 1C DEB SSO 2024-11-21 23:32:22 0.0001671038 484.0 (m) DEBRIS
COSMOS 2251 DEB LEO 2024-11-06 01:43:23 0.0002435826 244.0 (m) DEBRIS

Associated space launch

18 Low Earth Orbit communication satellites with Ku, Q and V band payloads for the G60 constellation operated by Shanghai Spacecom Satellite Technology (SSST) with funding backed by the Shanghai local government. Initial constellation will consist of 1296 satellites by 2027 with long term plans to expand it to 12000 satellites.

CZ-6A DEB was lifted into orbit during the mission ‘Long March 6A | G60 Polar Group 01’, on board a Long March 6A space rocket.

The launch took place on Aug. 6, 2024, 6:42 a.m. from Launch Complex 9A.

For more information about the launch, click the button.

Launch to space Long March 6A | G60 Polar Group 01
Long March 6A | G60 Polar Group 01

Agency: N/A

Status: Launch Successful

Launch date: Aug. 6, 2024, 6:42 a.m. UTC

Rocket: Long March 6A

Launch pad: Launch Complex 9A

Location: Taiyuan Satellite Launch Center, People's Republic of China

...

Latest news about this satellite

News about space launch
Brightness of first Chinese broadband constellation satellites alarms astronomers

The first satellites of a Chinese broadband constellation are significantly brighter than those of Western systems, posing a new challenge for astronomers.

News about space launch
Chinese rocket stage breaks up into cloud of more than 700 pieces of space debris

HELSINKI — A Chinese Long March 6A rocket’s upper stage has fragmented into a cloud of over 700 pieces of space debris, adding to concerns about long-term orbital safety. China […]

News about space launch
China's Thousand Sails Megaconstellation Kicks Off with Dangerous Debris Field

China's Thousand Sails Megaconstellation Kicks Off with Dangerous Debris Field


Newsletter sign-up

Weekly statistics, charts and insights to help you stay on top of the space industry.